870  
ASUS44 KOUN 191610  
RWROK  
 
WEATHER ROUNDUP FOR OKLAHOMA  
NATIONAL WEATHER SERVICE NORMAN OK  
1000 AM CST SUN FEB 19 2017  
 
NOTE: "FAIR" INDICATES FEW OR NO CLOUDS BELOW 12,000 FEET WITH NO  
SIGNIFICANT WEATHER AND/OR S TO VISIBILITY
.  
 
OKZ001>007-009>012-014-015-017-191700-  
NORTHWEST OKLAHOMA AND THE PANHANDLE  
 
CITY SKY/WX TMP DP RH WIND PRES REMARKS
 
GAGE CLOUDY 52 51 97 S12 29.89R FOG  
GUYMON CLOUDY 51 47 86 SE10 29.81F  
ENID/WOODRING FOG 55 55 100 SE8 29.91S VSB 1/2  

 
 
OKZ016-021>023-033>039-044-045-191700-  
SOUTHWEST OKLAHOMA  
 
CITY SKY/WX TMP DP RH WIND PRES REMARKS
 
LAWTON/REGL CLOUDY 61 58 90 E3 29.91F FOG  
LAWTON/FT SILL CLOUDY 59 59 100 CALM 29.90F  
FREDERICK CLOUDY 58 58 100 CALM 29.88R FOG  
CLINTON CLOUDY 56 54 93 SE16 29.91S FOG  
HOBART CLOUDY 57 56 96 S16 29.91S FOG  
ALTUS AFB CLOUDY 57 55 94 SE10 29.91R FOG  

 
 
OKZ018>020-024>031-191700-  
CENTRAL OKLAHOMA  
 
CITY SKY/WX TMP DP RH WIND PRES REMARKS
 
OKLAHOMA CITY CLOUDY 59 58 96 S17G24 29.93R FOG  
OKC/WILEY POST CLOUDY 60 58 92 S23 29.93R  
OKC/TINKER AFB CLOUDY 59 59 100 S16 29.93R  
STILLWATER FOG 56 56 100 S10 29.93S VSB 1  
GUTHRIE CLOUDY 60 57 89 S14 29.92S  

 
 
OKZ008-013-054>072-191700-  
NORTHEAST OKLAHOMA  
 
CITY SKY/WX TMP DP RH WIND PRES REMARKS
 
TULSA CLOUDY 58 56 93 S10 29.96R  
TULSA/JONES CLOUDY 57 54 89 S6 29.98R  
BARTLESVILLE CLOUDY 54 51 90 SE8 29.98S FOG  
MUSKOGEE CLOUDY 60 57 89 SE10 30.01R  

 
 
OKZ032-040>043-046>053-073>077-191700-  
SOUTH CENTRAL/SOUTHEAST OKLAHOMA  
 
CITY SKY/WX TMP DP RH WIND PRES REMARKS
 
ARDMORE/DWNTWN CLOUDY 61 59 94 S9 29.94S FOG  
MCALESTER CLOUDY 65 58 78 S9 29.99R  

 
 
 
 
CLICK HERE TO GO TO PREVIOUS BULLETINS.

The Nexlab OK Page Main Text Page